sat.trackr.live / text

‹ back to catalog

COSMOS 2544 (759)

NORAD 44850 · 2019-088A

PAYLOAD ACTIVE UNKNOWN

§ Identity

Operator
Country
CIS
Launch date
2019-12-11
Launch site
PLMSC
Launch vehicle
Mass (kg)
RCS (m²)

Purposes: nav

External: N2YO · Heavens-Above · Gunter

§ Orbital elements

Epoch: 2026-09-18T09:53:22.900704Z

Period
675.73 min
Inclination
65.6225°
Eccentricity
0.0012069
Mean motion
2.13103007 rev/d
Perigee alt
19,099.0 km
Apogee alt
19,160.6 km
Semi-major
25,507.9 km
B*
0.0000e+0
RAAN
70.6223°
Arg perigee
244.9635°
Mean anomaly
114.9418°
Rev number
5,270

§ Raw data

COSMOS 2544 (759)1 44850U 19088A   26261.41207061  .00000021  00000+0  00000+0 0  99962 44850  65.6225  70.6223 0012069 244.9635 114.9418  2.13103007 52709

JSON: /api/v1/satellites/44850 · /tle

For live sub-satellite position, see the globe view (requires WebGL).

§ Visibility from observer

Set your observer location to see the next 7 days of passes ≥ 10°. The values pass through the URL so the page stays shareable.

No JS? Fill the form by hand. The geolocation button needs JavaScript.